Location: Makanda
(37.6176°N, 89.2090°W)
Time: 07:55:34
(UTC+00:00)

Lacrosse 5 rocket - Pass Details

Date: 23 September 2019
Orbit: 459 x 639 km, 57.0° (Epoch: 21 October)

Event Time Altitude Azimuth Distance (km) Brightness Sun altitude
Rises 00:49:17 0° 230° (SW) 2,466 5.3 -11.7°
Reaches altitude 10° 00:51:25 10° 234° (SW) 1,602 4.3 -12.1°
Maximum altitude 00:54:56 58° 314° (NW) 553 1.6 -12.8°
Drops below altitude 10° 00:58:36 10° 34° (NE) 1,663 3.5 -13.5°
Enters shadow 01:00:02 - 38° (NE) 2,244 4.2 -13.8°
